Ashtabula, OH

4:22 PM EST on December 10, 2019 (GMT -0500)
Ashtabula County

Weather History for KHZY - September, 2019

Change the Weather History Date:

Thursday, September 5, 2019

  Actual Average (WUND) Record (WUND)
Temperature  
Mean Temperature 57 °F -  
Max Temperature 72 °F - - (-1)
Min Temperature 45 °F - - (-1)
Degree Days  
Heating Degree Days 8    
Growing Degree Days 7 (Base 50)    
Moisture  
Dew Point 51 °F    
Average Humidity 88    
Maximum Humidity 100    
Minimum Humidity 52    
Precipitation  
Precipitation 0.00 in - - ()
Sea Level Pressure  
Sea Level Pressure 30.13 in    
Wind  
Wind Speed 1 mph (NNE)    
Max Wind Speed 7 mph    
Max Gust Speed -    
Visibility 7 miles    
Events      
Averages and records for this station are not official NWS values.
T = Trace of Precipitation, MM = Missing Value Source: NWS Daily Summary

Daily Weather History Graph

Daily Weather History Graph

Search for Another Location

Airport or City:

Astronomy

Sep. 05, 2019 Rise Set
Actual Time 6:52 AM EDT 7:49 PM EDT
Civil Twilight 6:24 AM EDT 8:18 PM EDT
Nautical Twilight 5:50 AM EDT 8:51 PM EDT
Astronomical Twilight 5:15 AM EDT 9:26 PM EDT
Moon 2:03 PM EDT (9/5) 11:58 PM EDT (9/5)
Length of Visible Light 13h 54m
Length of Day
12h 57m
Waxing Crescent, 45% of the Moon is Illuminated
Sep 5
Waxing Crescent
Sep 5
First Quarter
Sep 14
Full
Sep 21
Last Quarter
Sep 28
New

Hourly Weather History & Observations

Time (EDT) Temp. Dew Point Humidity Pressure Visibility Wind Dir Wind Speed Gust Speed Precip Events Conditions
12:53 AM 52.0 °F 51.1 °F 97% 30.13 in 10.0 mi Calm Calm - N/A   Clear
1:53 AM 50.0 °F 50.0 °F 100% 30.13 in 2.5 mi Calm Calm - N/A   Clear
2:05 AM 50.0 °F 50.0 °F 100% 30.13 in 8.0 mi Calm Calm - N/A   Clear
2:53 AM 48.9 °F 48.9 °F 100% 30.13 in 10.0 mi Calm Calm - N/A   Clear
3:17 AM 48.9 °F 48.0 °F 97% 30.13 in 2.0 mi Calm Calm - N/A   Clear
3:28 AM 48.0 °F 48.0 °F 100% 30.13 in 3.0 mi Calm Calm - N/A   Clear
3:43 AM 48.0 °F 48.0 °F 100% 30.13 in 1.8 mi Calm Calm - N/A   Clear
3:51 AM 46.4 °F 46.4 °F 100% 30.13 in 4.0 mi Calm Calm - N/A   Clear
3:52 AM 46.9 °F 46.9 °F 100% 30.13 in 5.0 mi Calm Calm - N/A   Clear
4:35 AM 48.0 °F 46.9 °F 96% 30.14 in 2.5 mi Calm Calm - N/A   Clear
4:43 AM 46.9 °F 46.9 °F 100% 30.14 in 7.0 mi Calm Calm - N/A   Clear
4:53 AM 46.9 °F 46.9 °F 100% 30.14 in 10.0 mi Calm Calm - N/A   Clear
5:47 AM 46.4 °F 46.4 °F 100% 30.14 in 1.8 mi Calm Calm - N/A   Clear
5:53 AM 46.0 °F 46.0 °F 100% 30.14 in 1.8 mi Calm Calm - N/A   Clear
5:56 AM 46.0 °F 46.0 °F 100% 30.14 in 4.0 mi Calm Calm - N/A   Clear
6:12 AM 46.0 °F 46.0 °F 100% 30.14 in 3.0 mi Calm Calm - N/A   Clear
6:53 AM 45.0 °F 45.0 °F 100% 30.16 in 5.0 mi Calm Calm - N/A   Clear
7:53 AM 48.9 °F 48.9 °F 100% 30.17 in 10.0 mi Calm Calm - N/A   Clear
8:53 AM 57.0 °F 55.9 °F 96% 30.18 in 10.0 mi Calm Calm - N/A   Clear
9:53 AM 64.0 °F 55.9 °F 75% 30.19 in 10.0 mi Calm Calm - N/A   Clear
10:53 AM 66.0 °F 52.0 °F 60% 30.17 in 10.0 mi Variable 4.6 mph - N/A   Clear
11:53 AM 68.0 °F 50.0 °F 52% 30.16 in 10.0 mi East 6.9 mph - N/A   Clear
12:53 PM 69.1 °F 51.1 °F 53% 30.14 in 10.0 mi Variable 6.9 mph - N/A   Partly Cloudy
1:53 PM 68.0 °F 54.0 °F 61% 30.14 in 10.0 mi North 4.6 mph - N/A   Mostly Cloudy
2:53 PM 69.1 °F 54.0 °F 58% 30.11 in 10.0 mi North - - N/A   Partly Cloudy
3:53 PM 68.0 °F 55.9 °F 65% 30.12 in 10.0 mi North 5.8 mph - N/A   Partly Cloudy
4:53 PM 68.0 °F 55.9 °F 65% 30.12 in 10.0 mi North 6.9 mph - N/A   Partly Cloudy
5:53 PM 68.0 °F 55.0 °F 63% 30.11 in 10.0 mi North 4.6 mph - N/A   Clear
6:53 PM 64.9 °F 55.0 °F 70% 30.10 in 10.0 mi North 4.6 mph - N/A   Clear
7:53 PM 60.1 °F 55.0 °F 83% 30.09 in 10.0 mi Calm Calm - N/A   Clear
8:53 PM 55.9 °F 55.0 °F 97% 30.09 in 10.0 mi Calm Calm - N/A   Clear
9:53 PM 54.0 °F 54.0 °F 100% 30.08 in 8.0 mi Calm Calm - N/A   Clear
10:08 PM 53.1 °F 52.0 °F 96% 30.08 in 1.5 mi Calm Calm - N/A   Clear
10:18 PM 53.1 °F 53.1 °F 100% 30.08 in 4.0 mi Calm Calm - N/A   Clear
10:53 PM 52.0 °F 52.0 °F 100% 30.07 in 10.0 mi Calm Calm - N/A   Clear
11:53 PM 51.1 °F 51.1 °F 100% 30.06 in 8.0 mi Calm Calm - N/A   Clear